SCP
0 0 0 0 0 0 0 0 0 0 0 0 0 0 0 0 0 0 0 0 0 0 0 0 0 0 0 0 0 0 0 0 0 0 0 0 0 0 0 0 0 0 0
0 0 0 0 0 0 0 0 0 0 0 0 0 0 0 0 0 0 0 0 0 0 0 0 0 0 0 0 0 0 0 0 0 0 0 0 0 0 0 0 0 0 0
0 0 0 0 0 0 0 0 0 0 0 0 0 0 0 0 0 0 0 0 0 0 0 0 0 0 0 0 0 0 0 0 0 0 0 0 0 0 0 0 0 0 0
0 0 0 0 0 0 0 0 0 0 0 0 0 0 0 0 0 0 0 0 0 0 0 0 0 0 0 0 0 0 0 0 0 0 0 0 0 0 0 0 0 0 0
0 0 0 0 0 0 0 0 0 0 0 0 0 0 0 0 0 0 0 0 -0 -0 0 0 0 0 0 0 0 0 0 0 0 0 0 0 0 0 0 0 0 0 0
0 0 0 0 0 0 0 0 0 0 0 0 0 0 0 0 0 0 -0 -0 -0 -0 -0 -0 0 0 0 0 0 0 0 0 0 0 0 0 0 0 0 0 0 0 0
1 0 0 0 0 0 0 0 0 0 0 0 0 0 0 -0 -0 -0 -0 -0 -0 -0 -0 -0 0 0 0 0 0 0 0 0 0 0 0 0 0 0 0 0 0 0 0
1 0 0 0 0 0 0 0 0 0 0 0 0 0 -0 -0 -0 -0 -0 -0 -0 -0 -0 -0 0 0 0 0 0 0 0 0 0 0 0 0 0 0 0 0 0 0 0
1 1 0 0 0 0 0 0 0 0 0 0 0 0 -0 -0 -0 0 0 0 -0 -0 -0 0 0 0 0 0 0 0 0 0 0 0 0 0 0 0 0 0 0 0 0
1 1 0 0 0 0 0 0 0 0 0 0 0 0 0 0 0 0 0 0 0 0 0 0 0 0 0 0 0 0 0 0 0 0 0 0 0 0 0 0 0 0 0
1 1 1 1 1 0 0 0 0 0 0 0 0 0 0 0 0 0 0 0 0 0 0 0 0 0 0 0 0 0 0 0 0 0 0 0 0 0 0 0 0 0 0
1 1 1 1 1 1 1 0 0 0 0 0 0 0 0 0 0 0 0 0 0 0 0 0 0 -0 0 0 0 0 0 0 0 0 0 0 0 0 0 0 0 0 0
1 1 1 1 1 1 1 0 0 0 0 0 0 0 0 0 0 0 0 0 0 0 0 0 0 0 0 0 0 0 0 0 0 0 0 0 0 0 0 0 0 0 0
1 1 1 1 1 1 1 1 0 0 0 0 0 0 0 0 0 0 0 0 0 0 0 0 0 0 0 0 0 0 0 0 0 0 0 0 0 0 0 0 0 0 0
1 1 2 2 1 1 1 1 0 0 0 0 0 0 0 0 0 0 0 0 0 0 0 0 0 0 0 0 0 0 0 0 0 0 0 0 0 0 0 0 0 0 0
1 1 2 2 2 2 1 1 1 0 0 0 0 0 0 0 0 0 0 0 0 0 0 0 0 0 0 0 0 0 0 0 0 0 0 0 0 0 0 0 0 0 0
0 1 2 2 2 2 2 1 1 1 0 0 0 0 0 0 0 0 0 0 0 0 0 0 0 0 0 0 0 0 0 0 0 0 0 0 0 0 0 0 0 0 0
0 0 1 2 3 2 2 2 1 1 1 0 0 0 0 0 0 0 0 0 0 0 0 0 0 0 0 0 0 0 0 0 0 0 0 0 0 0 0 0 0 0 0
0 0 1 2 3 3 3 2 2 1 1 0 0 0 0 0 0 0 0 0 0 0 0 0 0 0 0 0 0 0 0 0 0 0 0 0 0 0 0 0 0 0 0
0 0 1 2 3 3 3 3 2 1 1 1 0 0 0 0 0 0 0 0 0 0 0 0 0 0 0 0 0 0 0 0 0 0 0 0 0 0 0 0 0 0 0
0 0 0 1 2 3 4 3 3 2 1 1 0 0 0 0 0 0 0 0 0 0 0 0 0 0 0 0 0 0 0 0 0 0 0 0 0 0 0 0 0 0 0
0 0 0 1 2 3 4 4 3 2 1 1 0 0 0 0 0 0 0 0 0 0 0 0 0 0 0 0 0 0 0 0 0 0 0 0 0 0 0 0 0 0 0
0 0 0 0 1 3 4 4 2 1 0 0 0 0 0 0 0 0 0 0 0 0 0 0 0 0 0 0 0 0 0 0 0 0 0 0 0 0 0 0 0 0 0
0 0 0 0 1 2 3 3 2 1 0 0 0 0 0 0 0 0 0 0 0 0 0 0 0 0 0 0 0 0 0 0 0 0 0 0 0 0 0 0 0 0 0
0 0 0 0 0 1 3 3 2 1 0 0 0 0 0 0 0 0 0 0 0 0 0 0 0 0 0 0 0 0 0 0 0 0 0 0 0 0 0 0 0 0 0
0 0 0 0 0 1 2 3 2 1 0 0 0 0 0 0 0 0 0 0 0 0 0 0 0 0 0 0 0 0 0 0 0 0 0 0 0 0 0 0 0 0 0
Wind_Speed
7 8 17 17 17 16 15 15 14 14 15 16 17 17 17 16 14 13 12 11 10 9 10 11 13 13 13 13 11 9 8 8 8 8 7 7 8 8 8 8 6 3 5
10 11 17 17 17 16 15 14 14 14 14 15 16 17 17 15 14 13 12 11 10 10 10 11 11 11 11 10 9 8 7 7 7 5 3 2 3 6 7 7 6 3 5
14 12 15 18 18 17 16 15 15 14 14 15 16 16 16 15 14 13 12 11 11 10 10 10 10 10 9 9 8 7 6 6 5 3 2 1 0 5 5 5 4 4 3
15 12 12 17 18 17 16 16 16 16 16 16 16 16 16 15 14 13 12 11 11 10 10 10 9 9 8 7 6 6 5 5 5 4 1 3 2 4 4 3 2 2 1
13 11 13 18 17 16 16 16 17 16 16 16 15 15 15 15 14 13 12 11 10 9 9 9 8 8 7 6 5 5 5 7 8 5 2 3 2 2 3 2 1 0 1
11 10 12 17 17 16 16 16 17 16 16 15 15 15 15 14 14 13 12 11 9 8 8 8 8 7 6 5 5 5 7 9 7 4 3 3 1 1 2 1 1 1 2
12 9 12 17 17 16 16 16 16 16 15 14 14 14 14 14 13 13 12 10 8 7 6 7 7 7 6 5 4 6 8 9 6 5 4 1 1 2 2 2 3 3 3
15 12 12 18 16 16 15 14 15 16 16 15 13 13 13 13 13 13 12 11 8 7 6 6 7 7 5 4 5 7 8 8 6 6 3 2 3 3 3 4 4 4 4
13 13 10 10 12 14 14 13 14 14 14 14 13 11 9 10 12 14 13 11 8 7 6 6 6 6 5 4 5 7 9 9 5 3 2 2 3 3 3 3 4 5 7
10 12 11 9 9 8 9 12 13 12 12 12 11 9 7 7 11 14 11 10 8 7 6 6 6 5 4 4 6 8 10 8 6 4 1 2 3 5 5 6 8 11 13
10 10 10 9 8 8 8 10 10 11 11 11 10 10 6 4 6 8 9 9 8 7 6 5 5 4 3 5 7 8 8 3 4 2 1 5 10 12 14 14 15 16 16
13 12 10 11 10 9 9 6 5 5 6 6 6 6 4 4 4 5 9 10 9 7 5 4 4 3 2 3 5 7 3 4 3 2 3 10 13 14 15 15 15 15 14
15 14 13 12 11 11 7 6 4 3 4 6 7 6 5 4 3 3 3 4 4 4 2 2 4 3 3 2 2 3 4 3 2 2 4 11 12 13 13 13 13 12 12
14 16 14 13 12 12 9 8 7 5 5 5 6 7 5 4 4 4 3 3 3 2 2 2 2 3 3 3 3 4 4 3 2 2 4 11 12 12 12 11 11 11 10
12 15 15 15 14 13 10 8 9 7 7 6 6 6 7 6 6 5 3 3 3 2 3 3 3 3 3 4 3 4 4 4 4 3 4 11 12 11 11 10 10 10 10
11 13 14 16 16 15 12 10 9 9 7 7 6 7 8 6 6 5 4 4 3 3 3 4 4 4 3 3 4 4 3 4 4 4 4 6 11 11 10 10 10 10 10
9 11 14 17 17 17 15 13 10 9 8 8 7 8 9 8 8 7 6 5 4 4 5 4 4 3 3 3 4 3 2 3 4 4 4 3 4 8 9 10 11 11 12
8 9 13 14 16 17 15 13 9 10 10 8 8 8 9 9 9 8 6 5 5 4 4 4 3 3 3 3 2 2 2 3 4 4 3 3 3 3 6 10 10 11 12
9 10 12 13 16 16 15 12 10 10 10 9 8 7 8 10 10 8 7 6 6 5 4 4 3 3 2 2 1 2 2 3 3 4 3 3 3 3 3 6 9 9 10
10 9 12 14 15 15 11 8 6 7 8 8 8 8 10 9 10 9 7 7 6 5 4 4 4 3 2 1 2 3 2 2 2 3 3 3 3 4 4 3 3 4 8
8 8 10 13 13 12 9 10 10 10 9 8 7 10 11 11 11 10 8 7 6 5 5 6 4 3 2 1 3 3 3 3 3 2 2 2 3 3 3 2 1 1 2
7 7 8 11 13 13 13 12 9 9 6 5 6 8 11 13 12 11 12 9 7 6 6 5 4 3 2 2 3 3 1 2 2 2 2 2 3 3 3 3 2 2 1
7 8 7 9 12 14 13 7 5 4 4 3 5 7 9 12 13 12 12 10 8 7 6 5 4 5 3 2 2 3 4 4 2 2 2 2 2 2 2 2 4 4 4
9 7 7 8 10 12 12 12 14 11 9 8 8 7 8 10 12 12 12 11 10 7 7 5 4 3 4 3 1 2 2 3 3 1 2 1 1 1 3 4 5 5 5
6 6 6 6 8 10 12 15 16 10 6 4 7 9 8 8 9 12 12 11 10 8 8 6 5 4 3 4 3 2 2 2 2 2 2 3 3 2 3 4 3 3 4
4 4 4 4 6 9 12 14 15 14 11 11 11 11 9 7 7 10 11 10 9 8 9 7 6 6 3 4 3 2 2 2 2 2 2 2 3 3 3 3 1 2 3
Wind_Direction
160 164 151 144 137 130 127 126 125 126 129 130 130 128 125 121 117 114 111 110 108 106 103 94 91 104 108 104 101 95 89 84 84 82 73 64 73 82 84 80 81 89 98
150 158 151 147 140 134 131 129 129 130 132 134 134 131 127 123 119 115 112 112 111 111 111 105 99 100 100 100 98 94 90 88 89 89 86 40 45 88 92 88 87 92 92
149 154 152 149 143 139 136 135 134 134 135 136 135 132 129 125 120 115 114 113 113 111 111 108 103 100 100 99 96 91 88 84 81 81 145 188 162 105 99 90 85 80 83
151 152 153 152 146 143 141 139 137 134 134 134 134 133 131 128 124 120 119 119 116 110 107 106 105 102 99 93 88 81 68 46 33 24 116 188 224 116 108 98 80 63 42
150 149 157 154 150 147 145 144 141 137 136 137 138 138 137 135 132 128 126 125 123 120 115 112 111 108 103 95 84 65 39 19 12 12 125 171 226 118 103 99 80 1 269
147 146 158 157 154 151 150 150 146 143 142 142 144 146 147 144 140 136 134 136 136 133 126 123 121 117 108 96 76 48 29 19 18 28 109 151 236 90 91 86 12 301 271
149 150 160 161 159 156 156 156 153 150 148 147 149 153 155 154 150 146 146 148 147 141 133 131 130 122 110 89 56 33 23 22 43 71 88 72 318 50 39 31 17 12 3
154 156 164 166 163 162 162 162 160 157 156 154 154 156 160 163 162 157 156 157 154 147 138 135 130 120 107 80 49 34 25 35 62 88 71 22 16 28 23 19 9 6 14
156 158 166 169 168 167 166 167 166 163 161 160 158 157 164 174 173 166 163 162 158 150 138 134 132 124 110 79 50 39 39 60 88 92 51 360 4 20 21 21 27 49 57
160 165 168 169 169 168 168 172 171 167 164 164 157 154 164 180 175 166 165 162 157 151 144 137 132 122 99 57 39 48 63 70 80 65 3 324 29 51 64 68 72 74 71
171 174 172 170 170 167 167 176 173 169 167 163 158 161 151 139 146 156 156 156 156 157 155 144 133 123 83 29 29 58 69 79 92 65 355 65 72 75 75 72 70 68 65
181 182 180 177 175 171 175 171 169 171 168 161 163 163 147 139 143 151 158 158 161 163 159 147 115 83 65 34 35 58 69 96 87 53 61 81 81 79 72 67 63 61 59
183 184 186 183 179 176 175 169 173 171 169 170 174 170 159 157 151 147 151 154 155 145 103 61 68 62 75 70 58 61 81 94 81 43 65 83 83 80 74 68 62 58 54
182 189 187 185 182 181 178 178 178 178 180 184 188 176 163 167 166 165 161 155 151 129 120 99 92 84 82 73 70 77 86 106 99 68 78 85 83 81 76 71 64 57 50
192 192 188 185 185 183 180 182 182 185 188 191 190 182 176 174 174 169 165 159 151 132 128 116 103 92 72 57 52 74 91 118 116 85 80 90 85 81 75 67 60 52 45
207 198 190 189 188 183 184 186 186 187 187 188 192 184 181 176 171 167 159 153 141 135 126 114 108 95 69 60 52 61 86 116 122 106 88 90 91 86 77 66 56 47 38
209 201 193 192 189 187 187 188 186 186 185 187 192 187 181 173 165 160 152 144 139 129 115 101 93 81 66 54 44 42 78 116 135 123 111 100 93 88 82 68 54 42 30
204 200 196 196 190 191 189 189 186 185 185 187 186 184 178 165 157 149 146 142 140 126 114 110 100 79 57 49 35 20 60 112 132 143 132 119 103 83 75 73 58 44 28
215 200 199 198 192 193 192 189 185 182 183 184 181 178 171 159 154 149 147 143 138 123 118 115 91 99 76 49 36 56 63 113 130 142 142 134 123 109 85 74 64 48 31
234 209 202 201 197 194 190 183 182 180 181 181 181 174 164 158 154 147 144 143 135 123 118 111 105 84 89 86 64 56 38 70 106 133 150 138 126 113 99 84 56 33 29
241 225 209 204 201 192 184 183 184 188 187 183 178 168 162 158 156 150 146 145 142 139 144 137 121 103 68 68 87 50 16 30 70 78 97 107 105 96 90 77 42 25 3
238 230 214 210 204 197 192 191 190 183 178 174 159 159 161 161 160 155 154 155 149 137 143 152 141 124 82 55 122 117 73 344 359 24 56 94 92 69 51 26 8 0 331
243 237 224 211 209 203 196 174 125 91 78 111 155 165 169 166 163 159 159 154 151 149 157 159 150 139 135 62 73 142 153 200 265 334 21 69 81 74 36 11 11 348 320
252 248 237 220 209 204 192 176 170 175 177 183 174 164 161 165 164 159 157 155 154 150 150 151 145 142 136 142 93 60 117 146 152 248 322 338 2 50 18 359 351 342 336
263 263 254 235 216 202 196 186 184 182 170 144 145 147 154 158 160 157 155 154 153 151 147 140 136 135 134 146 150 135 97 68 92 140 267 315 331 332 348 331 345 352 358
284 279 268 242 226 206 198 193 190 175 155 151 157 160 160 155 156 159 156 154 153 150 147 141 135 133 128 128 125 127 138 140 146 144 204 272 291 295 305 307 347 2 20